Riverton, WY

5:54 PM MDT on August 27, 2016 (GMT -0600)
Riverton Regional

Weather History for KRIW - January, 2013

Change the Weather History Date:

Thursday, January 10, 2013

  Actual Average Record
Temperature  
Mean Temperature 29 °F 20 °F  
Max Temperature 41 °F 31 °F 49 °F (2007)
Min Temperature 16 °F 8 °F -6 °F (2011)
Degree Days  
Heating Degree Days 36 45  
Month to date heating degree days 512 456  
Since 1 July heating degree days 3434 3773  
Cooling Degree Days 0 0  
Month to date cooling degree days 0 0  
Year to date cooling degree days 0 0  
Moisture  
Dew Point 17 °F    
Average Humidity 68    
Maximum Humidity 88    
Minimum Humidity 48    
Precipitation  
Precipitation 0.00 in 0.01 in 0.05 in (1932)
Month to date precipitation 0.00 0.10  
Year to date precipitation 0.00 0.10  
Snow  
Snow 0.00 in - - ()
Month to date snowfall 0.0  
Since 1 July snowfall 7.3  
Snow Depth 1.00 in    
Sea Level Pressure  
Sea Level Pressure 29.62 in    
Wind  
Wind Speed 10 mph (SW)    
Max Wind Speed 29 mph    
Max Gust Speed 37 mph    
Visibility 10 miles    
Events      
T = Trace of Precipitation, MM = Missing Value Source: NWS Daily Summary

Daily Weather History Graph

Daily Weather History Graph

Search for Another Location

Airport or City:

Trip Planner

Search our weather history database for the weather conditions in past years. The results will help you decide how hot, cold, wet, or windy it might be!

Date:

Astronomy

Jan. 10, 2013 Rise Set
Actual Time 7:44 AM MST 4:59 PM MST
Civil Twilight 7:12 AM MST 5:30 PM MST
Nautical Twilight 6:37 AM MST 6:06 PM MST
Astronomical Twilight 6:02 AM MST 6:40 PM MST
Moon 6:26 AM MST (1/10) 4:10 PM MST (1/10)
Length of Visible Light 10h 18m
Length of Day
9h 14m
Waning Crescent, 2% of the Moon is Illuminated
Jan 10
Waning Crescent
Jan 11
New
Jan 18
First Quarter
Jan 26
Full
Feb 3
Last Quarter

Hourly Weather History & Observations

Time (MST) Temp. Windchill Dew Point Humidity Pressure Visibility Wind Dir Wind Speed Gust Speed Precip Events Conditions
12:53 AM 14.0 °F 8.2 °F 10.0 °F 84% 29.92 in 10.0 mi NW 3.5 mph - N/A   Clear
1:53 AM 18.0 °F 11.1 °F 12.0 °F 78% 29.88 in 10.0 mi Variable 4.6 mph - N/A   Clear
2:53 AM 16.0 °F 6.3 °F 12.0 °F 84% 29.86 in 10.0 mi West 6.9 mph - N/A   Clear
3:53 AM 17.1 °F 6.6 °F 12.9 °F 84% 29.81 in 10.0 mi WNW 8.1 mph - N/A   Clear
4:53 AM 17.1 °F 11.7 °F 12.0 °F 81% 29.79 in 10.0 mi North 3.5 mph - N/A   Clear
5:53 AM 17.1 °F 11.7 °F 12.0 °F 81% 29.78 in 10.0 mi NNE 3.5 mph - N/A   Clear
6:53 AM 18.0 °F 4.2 °F 12.9 °F 81% 29.78 in 10.0 mi West 13.8 mph - N/A   Clear
7:53 AM 21.0 °F 12.4 °F 14.0 °F 74% 29.77 in 10.0 mi WSW 6.9 mph - N/A   Clear
8:53 AM 19.9 °F 10.1 °F 12.9 °F 74% 29.75 in 10.0 mi NW 8.1 mph - N/A   Clear
9:53 AM 30.9 °F 21.7 °F 18.0 °F 59% 29.66 in 10.0 mi South 11.5 mph - N/A   Clear
10:53 AM 35.6 °F 26.6 °F 19.4 °F 52% 29.56 in 10.0 mi South 13.8 mph - N/A   Clear
11:53 AM 35.1 °F 27.9 °F 19.0 °F 52% 29.58 in 10.0 mi WSW 9.2 mph - N/A   Clear
12:53 PM 37.0 °F 31.0 °F 19.0 °F 48% 29.58 in 10.0 mi SW 8.1 mph - N/A   Clear
1:53 PM 37.9 °F 31.5 °F 21.0 °F 51% 29.55 in 10.0 mi SSW 9.2 mph - N/A   Clear
2:53 PM 39.9 °F 35.8 °F 21.0 °F 47% 29.55 in 10.0 mi SSW 5.8 mph - N/A   Clear
3:53 PM 39.9 °F 34.5 °F 21.9 °F 49% 29.52 in 10.0 mi SSW 8.1 mph - N/A   Clear
4:53 PM 37.0 °F 29.8 °F 23.0 °F 57% 29.52 in 10.0 mi South 10.4 mph - N/A   Clear
5:53 PM 36.0 °F 26.7 °F 21.0 °F 55% 29.51 in 10.0 mi South 15.0 mph - N/A   Clear
6:53 PM 34.0 °F 23.8 °F 19.9 °F 56% 29.50 in 10.0 mi South 16.1 mph - N/A   Clear
7:53 PM 33.1 °F 21.5 °F 19.0 °F 56% 29.48 in 10.0 mi South 19.6 mph - N/A   Clear
8:53 PM 30.9 °F 18.7 °F 18.0 °F 59% 29.48 in 10.0 mi South 19.6 mph 27.6 mph N/A   Clear
9:53 PM 35.6 °F 25.9 °F 21.2 °F 56% 29.38 in 10.0 mi South 16.1 mph 28.8 mph N/A   Overcast
10:53 PM 33.1 °F 22.6 °F 21.0 °F 61% 29.38 in 10.0 mi SSW 16.1 mph 25.3 mph N/A   Clear
11:53 PM 30.0 °F 21.7 °F 18.0 °F 61% 29.37 in 10.0 mi SSE 9.2 mph - N/A   Clear